{"data":{"norad_id":66210,"intl_designator":"2025-244E","name":"STARLINK-35740","alt_names":[],"object_type":"PAYLOAD","status":"ACTIVE","operator":null,"country":"US","launch_date":"2025-10-28","launch_site_code":"AFWTR","launch_vehicle":null,"mission":null,"orbit_class":"UNKNOWN","rcs_meters":null,"size_class":null,"mass_kg":null,"dimensions":null,"purposes":["comms"],"wikipedia_slug":null,"has_3d_model":false,"image_url":null,"decayed_at":null,"tle_current":{"epoch":"2026-05-24T23:35:31.351200Z","epoch_age_seconds":69880,"freshness":"FRESH","line1":"1 66210U 25244E   26144.98300175  .00022881  00000+0  78221-3 0  9995","line2":"2 66210  53.1592 235.3061 0001084  79.7528 280.3595 15.30203313 33349","mean_motion":15.30203313,"eccentricity":0.0001084,"inclination_deg":53.1592,"raan_deg":235.3061,"arg_perigee_deg":79.7528,"mean_anomaly_deg":280.3595,"bstar":0.00078221,"rev_number":3334,"period_min":94.105141961616,"perigee_km":474.46227512431,"apogee_km":475.94807970838,"semimajor_km":6853.3421774163,"source":"CELESTRAK","updated_at":"2026-05-25T13:38:21.127009Z"}}}